[[{"header":{"parameterUnit":"m.s-1","parameterCategory":1,"la1":30.2991,"la2":30.254,"lo1":-89.0895,"lo2":-89.0444,"dy":0.0017,"dx":0.0017,"nx":28,"ny":28,"refTime":"2024-12-24T09:00:00:Z","depth":0,"parameterNumber":2,"parameterNumberName":"U-component_of_WINDS"},"data":[0,0,0,0,0,0,0,0,0,0,0,0,0,0,0,0,0,0,0,0,0,0,0,0,0,0,0,0,0,0,0,0,0,0,0,0,0,0,0,0,0,0,0,0,0,0,0,0,0,0,0,0,0,0,0,0,0,0,-5.0337,-5.0336,0,-5.0328,-5.0328,-5.0327,-5.0183,-5.0179,-5.0175,-5.0172,-5.0163,-5.0166,-5.017,0,0,0,0,0,0,0,0,0,0,0,0,0,-5.0231,-5.0233,-5.0337,-5.0336,-5.0336,-5.0328,-5.0327,-5.0327,-5.0183,-5.0179,-5.0174,-5.017,-5.0162,-5.0166,-5.017,0,0,0,0,0,0,0,0,0,0,0,0,0,-5.0255,-5.0234,-5.0337,-5.0263,-5.0257,-5.0328,-5.0327,-5.0327,-5.0184,-5.0179,-5.0173,-5.0168,-5.0161,-5.0166,-5.017,-5.0311,0,0,-5.0185,-5.0187,0,0,0,0,0,0,0,0,-5.0254,-5.0259,-5.0274,-5.0269,-5.0261,-5.0251,-5.0287,-5.0322,-5.0186,-5.0212,-5.0172,-5.0165,-5.0197,-5.0198,-5.0209,-5.031,-5.031,-5.0185,-5.0188,-5.019,-5.0192,0,0,0,0,0,0,0,-5.0252,-5.0258,-5.0333,-5.0275,-5.0267,-5.0232,-5.0229,-5.0293,-5.0236,-5.0209,-5.0199,-5.02,-5.0192,-5.0205,-5.0208,-5.031,-5.0185,-5.019,-5.0193,-5.0194,-5.0527,-5.0533,0,0,0,0,0,0,-5.026,-5.0258,-5.0333,-5.0333,-5.0244,-5.0238,-5.0235,-5.026,-5.0234,-5.0225,-5.0204,-5.0193,-5.0199,-5.0202,-5.0207,-5.0369,-5.019,-5.0195,-5.0198,-5.0521,-5.0528,-5.0535,0,0,0,0,0,0,-5.0259,-5.0268,-5.0334,-5.0292,-5.0298,-5.0246,-5.0275,-5.0262,-5.0274,-5.0231,-5.022,-5.0227,-5.0195,-5.02,-5.0286,-5.0367,-5.0197,-5.0201,-5.0514,-5.0523,-5.0531,-5.0696,0,0,0,0,0,0,-5.0256,-5.0269,-5.0321,-5.0295,-5.0301,-5.0413,-5.028,-5.0266,-5.0283,-5.0268,-5.0249,-5.0241,-5.0191,-5.028,-5.0291,-5.037,-5.0205,-5.0506,-5.0518,-5.0529,-5.0683,-5.0709,-5.0732,0,0,0,0,0,-5.0253,-5.0367,-5.0324,-5.0334,-5.0365,-5.0418,-5.0421,-5.0361,-5.029,-5.0342,-5.0315,-5.0242,-5.0357,-5.029,-5.0301,-5.0383,-5.0501,-5.0515,-5.0528,-5.0672,-5.0704,-5.0731,0,0,0,0,0,0,-5.0403,-5.0362,-5.0314,-5.0423,-5.0426,-5.0393,-5.0457,-5.0397,-5.0419,-5.0404,-5.0329,-5.0326,-5.0424,-5.0412,-5.0338,-5.0518,-5.0416,-5.0433,-5.0522,-5.0552,-5.0576,-5.0576,-5.0209,0,0,0,0,0,-5.045,-5.0496,-5.0457,-5.0558,-5.0561,-5.051,-5.0531,-5.0484,-5.0483,-5.0483,-5.0461,-5.0464,-5.05,-5.0526,-5.0557,-5.0681,-5.0675,-5.0744,-5.0768,-5.0788,-5.0803,-5.0868,-5.0898,-5.0579,-5.0578,-5.0578,0,0,-5.0545,-5.0528,-5.0562,-5.0588,-5.0583,-5.0633,-5.0511,-5.0569,-5.0605,-5.0492,-5.0571,-5.0557,-5.0554,-5.066,-5.0706,-5.0653,-5.089,-5.0806,-5.0822,-5.0825,-5.0885,-5.0916,-5.0943,-5.0588,-5.0586,-5.0585,0,0,-5.0743,-5.0736,-5.0818,-5.0818,-5.0813,-5.0779,-5.0799,-5.0777,-5.0763,-5.0842,-5.0758,-5.0801,-5.0866,-5.0867,-5.0877,-5.108,-5.1014,-5.1093,-5.122,-5.1284,-5.131,-5.1331,-5.1403,-5.143,-5.1108,-5.1108,-5.1108,0,-5.0862,-5.0933,-5.0868,-5.0932,-5.0946,-5.0848,-5.0931,-5.0933,-5.094,-5.0953,-5.0894,-5.0974,-5.0965,-5.1071,-5.1121,-5.1132,-5.1153,-5.1093,-5.1311,-5.1333,-5.1352,-5.142,-5.1447,-5.1118,-5.1117,-5.1116,-5.1115,0,-5.1079,-5.1131,-5.1198,-5.1208,-5.123,-5.1303,-5.125,-5.1281,-5.1234,-5.1206,-5.1289,-5.1276,-5.1303,-5.1325,-5.1279,-5.1425,-5.1392,-5.1324,-5.1219,-5.1393,-5.1456,-5.1481,-5.1131,-5.1128,-5.1125,-5.1123,0,0,-5.1369,-5.1344,-5.137,-5.1373,-5.1363,-5.1402,-5.1472,-5.1499,-5.1526,-5.1536,-5.1592,-5.1651,-5.1588,-5.1599,-5.1553,-5.1611,-5.1772,-5.1535,-5.1534,-5.1579,-5.1932,-5.1982,-5.2013,-5.173,-5.1734,-5.1738,-5.1932,0,-5.156,-5.1677,-5.1622,-5.1746,-5.1793,-5.1701,-5.1762,-5.1763,-5.174,-5.1777,-5.1751,-5.1794,-5.1708,-5.1714,-5.1767,-5.1742,-5.1842,-5.1727,-5.1781,-5.1784,-5.1783,-5.2046,-5.2098,-5.2282,-5.1956,-5.196,-5.1963,0,-5.1797,-5.1817,-5.1946,-5.1928,-5.1946,-5.2002,-5.2023,-5.206,-5.206,-5.2039,-5.2053,-5.1995,-5.2063,-5.1962,-5.2055,-5.1978,-5.1998,-5.1989,-5.1995,-5.1995,-5.1882,-5.2053,-5.2339,-5.2366,-5.2001,-5.1998,-5.1995,0,-5.1995,-5.2054,-5.2138,-5.2144,-5.2127,-5.2168,-5.2163,-5.2158,-5.2178,-5.2197,-5.221,-5.2237,-5.2252,-5.2275,-5.2226,-5.2156,-5.2326,-5.222,-5.231,-5.2312,-5.2348,-5.2346,-5.264,-5.2364,-5.2364,-5.2363,-5.2363,0,-5.2212,-5.2294,-5.2227,-5.2279,-5.2368,-5.2306,-5.2397,-5.2382,-5.2378,-5.2426,-5.235,-5.2396,-5.233,-5.237,-5.2333,-5.2416,-5.2424,-5.2409,-5.2397,-5.2415,-5.2416,-5.2424,-5.241,-5.237,-5.2369,-5.2367,-5.2366,0,-5.2446,-5.2404,-5.249,-5.2468,-5.2464,-5.2532,-5.2512,-5.256,-5.2533,-5.2594,-5.2605,-5.2563,-5.2607,-5.2561,-5.2602,-5.2577,-5.2688,-5.2659,-5.2688,-5.2679,-5.2772,-5.2763,-5.308,-5.3118,-5.282,-5.2823,-5.2825,0,-5.2586,-5.2647,-5.2632,-5.2659,-5.2659,-5.2703,-5.2724,-5.2666,-5.2691,-5.2697,-5.2744,-5.2782,-5.2809,-5.2884,-5.2857,-5.2888,-5.2858,-5.2967,-5.2862,-5.2878,-5.2858,-5.2855,-5.286,-5.2988,-5.2991,-5.2994,-5.2997,0,-5.284,-5.2817,-5.285,-5.2877,-5.2904,-5.2923,-5.2935,-5.2962,-5.2902,-5.2934,-5.2979,-5.3,-5.3043,-5.3081,-5.3105,-5.31,-5.3039,-5.3031,-5.3053,-5.3069,-5.3083,-5.3076,-5.2745,-5.3023,-5.302,-5.3018,-5.3017,-5.3016,-5.303,-5.308,-5.3078,-5.3118,-5.3122,-5.3136,-5.318,-5.3159,-5.3195,-5.3225,-5.319,-5.3245,-5.3245,-5.3271,-5.3274,-5.3316,-5.327,-5.3302,-5.331,-5.3319,-5.3332,-5.3079,-5.332,-5.3319,-5.3319,-5.3318,-5.3317,0,-5.3278,-5.3273,-5.3311,-5.3331,-5.3363,-5.3305,-5.3317,-5.3347,-5.3396,-5.3402,-5.3431,-5.3483,-5.3521,-5.3498,-5.3531,-5.3569,-5.3542,-5.358,-5.3575,-5.3575,-5.3372,-5.3349,-5.3601,-5.3601,-5.3601,-5.3601,-5.3601,-5.3601,-5.3411,-5.3493,-5.3471,-5.3555,-5.3549,-5.3603,-5.3614,-5.3628,-5.3632,-5.3694,-5.3725,-5.371,-5.3705,-5.3737,-5.377,-5.3762,-5.3777,-5.3825,-5.3807,-5.3617,-5.3589,-5.3563,-5.354,-5.3829,-5.3829,-5.4006,-5.4008,-5.4009]},{"header":{"parameterUnit":"m.s-1","parameterCategory":1,"la1":30.2991,"la2":30.254,"lo1":-89.0895,"lo2":-89.0444,"dy":0.0017,"dx":0.0017,"nx":28,"ny":28,"refTime":"2024-12-24T09:00:00:Z","depth":0,"parameterNumber":3,"parameterNumberName":"V-component_of_WINDS"},"data":[0,0,0,0,0,0,0,0,0,0,0,0,0,0,0,0,0,0,0,0,0,0,0,0,0,0,0,0,0,0,0,0,0,0,0,0,0,0,0,0,0,0,0,0,0,0,0,0,0,0,0,0,0,0,0,0,0,0,0.1955,0.1956,0,0.2052,0.2053,0.2054,0.2058,0.2056,0.2055,0.2054,0.2156,0.216,0.2164,0,0,0,0,0,0,0,0,0,0,0,0,0,0.1777,0.178,0.1955,0.1956,0.1957,0.2052,0.2053,0.2054,0.2058,0.2056,0.2055,0.2053,0.2155,0.2159,0.2164,0,0,0,0,0,0,0,0,0,0,0,0,0,0.1862,0.1782,0.1954,0.197,0.1972,0.2051,0.2053,0.2055,0.2058,0.2056,0.2054,0.2053,0.2153,0.2159,0.2165,0.2235,0,0,0.2182,0.2185,0,0,0,0,0,0,0,0,0.1858,0.1869,0.1966,0.1969,0.1972,0.2041,0.2028,0.2115,0.2058,0.2026,0.2054,0.2052,0.2119,0.2128,0.215,0.224,0.2245,0.2183,0.2186,0.2189,0.219,0,0,0,0,0,0,0,0.1852,0.1865,0.1993,0.1968,0.1971,0.1974,0.1984,0.2045,0.2081,0.2028,0.2029,0.204,0.212,0.2144,0.2152,0.2246,0.2182,0.2188,0.2191,0.2193,0.2404,0.2407,0,0,0,0,0,0,0.1842,0.186,0.199,0.1996,0.1909,0.1979,0.199,0.202,0.2081,0.2088,0.2042,0.204,0.2136,0.2146,0.2156,0.2246,0.2189,0.2194,0.2197,0.2402,0.2405,0.2407,0,0,0,0,0,0,0.1838,0.1854,0.1986,0.1928,0.1945,0.1984,0.2018,0.2023,0.2047,0.2091,0.2098,0.2059,0.2135,0.2148,0.2217,0.2249,0.2196,0.2202,0.24,0.2403,0.2406,0.2425,0,0,0,0,0,0,0.1833,0.1852,0.1878,0.1929,0.1948,0.2043,0.202,0.2026,0.2057,0.2056,0.2109,0.2116,0.2134,0.2208,0.2222,0.2256,0.2206,0.2397,0.2401,0.2405,0.2421,0.2428,0.2434,0,0,0,0,0,0.1827,0.1879,0.1879,0.1895,0.1981,0.2045,0.2057,0.2076,0.2059,0.2087,0.2116,0.2114,0.2243,0.2215,0.2231,0.2267,0.2395,0.24,0.2405,0.2418,0.2427,0.2434,0,0,0,0,0,0,0.1831,0.1885,0.1886,0.1956,0.1996,0.2046,0.208,0.2083,0.2129,0.2126,0.2149,0.2161,0.223,0.2256,0.2223,0.2342,0.2318,0.2326,0.2322,0.2331,0.2337,0.233,0.2211,0,0,0,0,0,0.1839,0.1886,0.1932,0.1989,0.2009,0.2041,0.207,0.2082,0.2124,0.2141,0.2175,0.2217,0.2268,0.23,0.2349,0.2425,0.2439,0.2458,0.2465,0.247,0.2477,0.2523,0.2533,0.2423,0.2423,0.2423,0,0,0.1858,0.1894,0.1922,0.1991,0.2023,0.2073,0.2055,0.2107,0.2145,0.2149,0.2217,0.2243,0.2292,0.2366,0.24,0.2389,0.2511,0.2476,0.2479,0.2484,0.2529,0.254,0.2549,0.2427,0.2426,0.2426,0,0,0.1918,0.1949,0.2002,0.2035,0.2084,0.2106,0.2119,0.2169,0.2187,0.2255,0.2261,0.2307,0.2392,0.2429,0.2458,0.2537,0.2539,0.2552,0.2585,0.263,0.2639,0.2647,0.2678,0.2688,0.2559,0.2559,0.2559,0,0.1936,0.2009,0.2028,0.2082,0.2114,0.212,0.2176,0.2207,0.227,0.2293,0.228,0.2391,0.2424,0.2508,0.2528,0.255,0.2568,0.2546,0.2636,0.2644,0.2652,0.2682,0.2693,0.256,0.256,0.256,0.256,0,0.203,0.2081,0.2118,0.218,0.2216,0.227,0.23,0.2334,0.2344,0.2368,0.244,0.248,0.2539,0.256,0.2569,0.2647,0.2639,0.2631,0.2607,0.2663,0.2692,0.2703,0.2563,0.2562,0.2562,0.2561,0,0,0.2093,0.2167,0.2181,0.2211,0.2267,0.2308,0.2365,0.2422,0.2453,0.2497,0.2547,0.2621,0.2615,0.2649,0.2663,0.2702,0.2766,0.2689,0.2691,0.2704,0.2858,0.2866,0.2878,0.2768,0.277,0.2771,0.2855,0,0.2161,0.226,0.2281,0.2367,0.2417,0.2426,0.2476,0.2518,0.2543,0.259,0.2618,0.2672,0.2658,0.2679,0.2718,0.275,0.2798,0.2744,0.2817,0.2819,0.2805,0.2893,0.29,0.2977,0.2866,0.2868,0.2869,0,0.2253,0.2301,0.2392,0.2447,0.2468,0.2512,0.2569,0.2613,0.2663,0.2679,0.2718,0.2729,0.2791,0.2764,0.2852,0.2815,0.2846,0.2867,0.287,0.2879,0.2848,0.2906,0.3001,0.3014,0.2887,0.2885,0.2884,0,0.2294,0.2381,0.2448,0.2473,0.2537,0.2568,0.2597,0.2644,0.2679,0.2729,0.2752,0.2809,0.2841,0.2886,0.2913,0.289,0.3,0.2974,0.3017,0.3016,0.304,0.3038,0.3144,0.3057,0.3057,0.3057,0.3056,0,0.2369,0.2425,0.2467,0.2509,0.2573,0.2598,0.2662,0.2691,0.2734,0.2783,0.2794,0.284,0.2873,0.2924,0.2946,0.3017,0.3031,0.3047,0.3053,0.3048,0.3046,0.3069,0.3065,0.306,0.3059,0.3058,0.3058,0,0.2425,0.2455,0.2529,0.2585,0.26,0.2646,0.2695,0.2737,0.2763,0.2825,0.2842,0.2884,0.2945,0.2977,0.3053,0.3069,0.315,0.3151,0.3133,0.3136,0.3178,0.3175,0.3303,0.3323,0.3221,0.3222,0.3223,0,0.2471,0.2515,0.2576,0.261,0.2639,0.2692,0.2729,0.2756,0.2794,0.2856,0.2891,0.2954,0.3005,0.3104,0.3143,0.3203,0.3207,0.3248,0.3216,0.321,0.3211,0.3209,0.3215,0.3254,0.3255,0.3256,0.3256,0,0.2551,0.2565,0.2616,0.2674,0.2717,0.2764,0.281,0.2838,0.2873,0.2916,0.2979,0.3019,0.3099,0.3162,0.3226,0.3257,0.3265,0.3266,0.328,0.3276,0.3265,0.3274,0.3151,0.3263,0.3262,0.3262,0.3262,0.3261,0.2606,0.2647,0.2697,0.2755,0.2793,0.2837,0.2881,0.2914,0.2967,0.3034,0.3047,0.3116,0.3168,0.3254,0.3288,0.3344,0.3335,0.3354,0.3359,0.3364,0.3368,0.3255,0.3355,0.3355,0.3355,0.3355,0.3354,0,0.2689,0.2723,0.2776,0.2841,0.2888,0.289,0.2942,0.2982,0.3042,0.3089,0.3141,0.3216,0.3278,0.3323,0.3387,0.3423,0.3429,0.344,0.3438,0.3446,0.337,0.3353,0.3435,0.3435,0.3435,0.3435,0.3435,0.3435,0.2738,0.2808,0.2829,0.292,0.2954,0.3021,0.3051,0.3093,0.3132,0.3216,0.3268,0.3296,0.3344,0.3413,0.3471,0.3483,0.3508,0.3519,0.3531,0.3459,0.3451,0.3443,0.3427,0.3523,0.3523,0.3603,0.3604,0.3605]}]]